Vertical_Velocity
8 -4 -18 3 -6 -1 23 8 -10 5 9 -11 -3 5 23 -3 5 -1 -0 0 -4 -1 -0 2 1 6 2 8 -4 2 -1 2 1 -1 -0 -1 -2 -1 1 2 6 1 -0 -2
4 6 -10 10 0 -2 2 4 8 5 8 1 2 -12 -4 11 -5 -8 -4 -6 -5 -4 -3 0 -6 1 6 -1 -0 -2 -1 6 1 -1 3 2 7 8 9 11 1 -3 0 -3
4 -5 -6 5 -5 0 -8 -2 -10 -8 4 11 6 -8 -12 2 2 -3 -0 -7 -1 3 -2 -1 -0 1 2 -5 2 -2 -0 1 -2 3 -2 4 2 -1 3 3 0 2 1 1
-0 6 -1 -2 -2 6 -1 -0 3 8 -2 -6 1 -4 -12 -2 -6 -0 4 2 -0 -3 -2 -6 -1 -1 1 -2 -2 2 1 1 -7 1 2 7 2 4 14 -21 -31 -3 2 -3
29 3 2 3 -11 2 1 1 1 -16 -3 -19 3 5 -3 -2 -6 -6 -5 -3 2 3 5 0 -6 1 5 -1 -1 4 -2 9 1 -0 8 1 5 -2 6 5 0 5 2 1
-4 1 -6 -0 5 6 -1 -2 18 13 16 -1 -1 -2 -3 -6 -12 -2 3 1 0 2 1 -2 1 -3 -1 4 1 -0 -1 0 7 -5 5 3 2 1 1 0 1 2 2 1
20 8 7 1 2 5 -14 22 -0 -3 -3 -5 5 3 -4 -2 3 -2 -1 -2 -4 -4 0 0 -2 -2 -3 2 3 4 2 10 10 8 6 2 3 3 3 -1 -1 -2 -1 3
-0 -1 -1 5 -2 -8 -1 2 -3 -4 -2 -3 5 -1 -11 -1 1 3 5 4 -0 -5 -1 -2 -1 1 -2 -3 -4 -0 6 1 11 1 2 3 5 4 3 -1 1 -1 1 0
-6 -6 -2 1 4 -0 9 -3 -0 -1 5 -2 -1 -1 1 0 0 0 -2 -4 -2 0 -3 -0 -4 -0 2 4 -2 -0 -2 3 2 4 8 4 5 4 3 3 3 -1 0 -1
-2 -8 -3 -2 -2 0 -2 1 -3 -2 -3 0 -2 1 -4 -3 -4 -2 -3 -0 -0 2 -2 -1 -4 3 0 -1 2 -3 6 -5 6 7 -3 5 6 -5 1 6 3 -0 -0 -3
1 1 -1 2 -0 -2 -0 -1 -3 0 0 -4 -1 -5 -3 -7 1 -1 -1 0 0 -0 -2 -3 -1 1 0 -2 2 6 2 6 -5 -13 -7 10 -7 6 -3 4 -0 1 -1 -4
5 -3 -2 -2 3 -3 -4 -2 -3 -1 -1 0 0 -2 4 4 2 -2 -3 -3 -1 -4 -3 -2 -4 -3 3 1 1 3 5 10 8 18 13 6 -11 12 6 2 0 4 -1 -4
-3 2 -2 -1 -3 -5 -6 -3 1 -2 3 -0 -3 -3 1 3 -1 0 1 2 -1 0 -1 1 -2 0 1 1 -0 4 5 3 2 -8 1 -4 -5 -21 -16 -13 -13 -6 -18 -14
-1 -2 -0 -7 -0 1 -2 -0 1 2 -3 -10 -10 -2 -0 1 4 2 0 5 -7 -3 -3 -1 -1 -4 -3 1 0 1 3 5 1 3 2 4 0 2 3 1 1 2 0 3
3 4 0 -0 0 1 2 1 5 -5 -1 -5 -12 -4 -2 5 1 3 -2 0 1 -11 -3 -6 2 2 -1 -0 -1 1 1 1 0 -2 -1 -2 -1 1 7 7 2 1 2 1
1 -1 -4 -4 -0 1 -3 -4 -2 -3 1 -4 3 -25 18 3 6 5 2 3 2 0 -5 -6 -4 -2 3 0 -1 -4 -1 -1 -1 -3 4 2 0 6 4 -0 2 3 -4 0
-5 -6 -4 -3 -1 -3 -9 1 4 2 3 6 -5 -9 10 -3 1 1 -1 7 7 3 3 2 -4 -3 -3 0 4 1 2 -1 1 2 -1 1 4 4 1 3 2 -1 1 -1
-8 -5 -2 -4 1 -3 3 -3 -1 -1 -5 3 3 -6 4 3 -0 1 1 -3 -1 0 -0 -1 0 -4 4 2 4 3 3 1 2 0 0 1 1 1 1 -1 1 2 -2 2
1 6 -0 -1 -0 -9 -5 2 4 1 -2 -3 2 0 -4 -2 -1 2 1 1 -3 -2 -1 -2 2 1 1 1 2 2 2 1 -0 0 1 1 -0 -0 -0 1 -1 -0 1 -3
5 2 -0 -0 -1 -0 3 0 -2 -4 -9 3 3 2 -0 -0 -4 1 1 2 3 -2 -4 -2 0 -0 -0 1 1 2 6 3 2 2 3 0 0 -0 1 0 -0 -2 -2 -0
1 2 0 1 -1 -5 -3 -0 1 4 -1 1 1 -0 -0 -2 -3 -7 -7 -8 -5 0 -1 -3 1 2 1 3 1 2 5 3 5 0 4 1 -0 -1 2 1 0 0 1 -0
-4 -1 -3 2 -0 -7 2 1 -2 3 5 1 0 1 -1 -0 1 0 1 1 -1 -1 1 1 -0 1 1 -0 3 2 3 1 3 3 2 3 -1 -0 1 1 -0 -0 -0 -1
-1 2 0 -0 -5 10 3 -1 -1 -11 -9 -7 2 1 2 -1 2 -3 -1 -2 -2 -1 -1 -1 -0 -1 -1 -2 0 4 6 4 1 2 0 3 -1 0 -1 -0 -2 -1 0 -1
-0 2 0 4 7 2 2 5 8 0 2 -3 3 -10 -7 -1 2 -1 -0 -1 -2 -3 -2 -1 1 1 0 1 3 3 5 6 4 2 1 -0 2 -2 -2 -2 -2 0 -1 -1
0 3 -3 -4 -1 -1 0 7 0 1 9 4 0 2 1 -6 -3 4 -0 -1 -1 -0 -2 -2 0 0 1 1 2 2 1 -0 -0 -1 -0 -0 -4 -1 -4 1 -1 1 -1 -1
-4 -4 -3 -7 -1 -4 -1 7 -5 -4 -7 4 -1 5 2 -8 1 2 3 1 3 1 -1 1 -0 -2 -3 1 0 -0 -2 -1 -2 -1 -4 -1 -0 0 -0 -1 0 2 3 -1
Height
3022 3029 3033 3040 3045 3051 3059 3065 3074 3081 3085 3091 3097 3102 3105 3108 3112 3114 3117 3119 3122 3125 3129 3132 3136 3139 3142 3144 3148 3154 3156 3158 3160 3162 3164 3165 3167 3171 3172 3173 3175 3178 3179 3181
3027 3029 3035 3042 3049 3054 3061 3067 3073 3081 3087 3092 3097 3101 3103 3107 3109 3112 3114 3116 3120 3123 3126 3130 3133 3135 3137 3140 3144 3149 3152 3154 3155 3158 3160 3163 3164 3166 3168 3169 3171 3173 3175 3176
3028 3032 3037 3043 3050 3056 3062 3069 3074 3081 3084 3090 3093 3099 3098 3101 3104 3107 3109 3112 3115 3119 3120 3124 3128 3131 3133 3137 3140 3144 3147 3149 3153 3154 3156 3159 3161 3163 3164 3166 3168 3169 3170 3171
3030 3036 3040 3047 3053 3058 3062 3068 3074 3077 3083 3089 3092 3094 3092 3092 3095 3099 3103 3106 3109 3112 3115 3118 3122 3125 3129 3133 3135 3139 3143 3146 3149 3151 3152 3153 3155 3158 3158 3161 3161 3162 3164 3166
3034 3038 3045 3050 3055 3060 3065 3067 3072 3078 3085 3091 3091 3093 3087 3087 3092 3094 3096 3099 3103 3106 3109 3111 3114 3119 3124 3127 3130 3133 3137 3140 3142 3145 3147 3148 3150 3152 3154 3154 3156 3158 3160 3160
3039 3044 3049 3052 3056 3061 3063 3068 3074 3080 3082 3085 3084 3088 3083 3084 3088 3091 3093 3095 3097 3101 3103 3105 3107 3111 3115 3120 3124 3128 3130 3133 3135 3138 3141 3141 3145 3146 3148 3149 3151 3153 3153 3154
3045 3048 3051 3056 3059 3062 3064 3069 3074 3081 3084 3085 3084 3086 3082 3084 3087 3090 3090 3091 3093 3096 3098 3099 3101 3103 3108 3112 3117 3121 3123 3127 3130 3131 3133 3136 3138 3140 3142 3143 3144 3145 3146 3147
3048 3056 3057 3060 3061 3064 3066 3070 3071 3079 3082 3081 3082 3082 3081 3084 3084 3087 3088 3088 3089 3090 3093 3094 3096 3099 3103 3107 3109 3112 3117 3119 3123 3126 3128 3130 3132 3134 3136 3137 3138 3139 3139 3140
3055 3058 3059 3062 3064 3069 3071 3073 3075 3074 3077 3079 3079 3079 3080 3078 3081 3083 3083 3085 3087 3087 3086 3088 3091 3094 3098 3100 3103 3106 3110 3113 3115 3119 3122 3124 3126 3128 3129 3131 3131 3132 3132 3131
3057 3060 3062 3063 3066 3068 3069 3073 3075 3075 3080 3080 3078 3077 3076 3077 3080 3081 3082 3083 3084 3083 3083 3084 3087 3089 3092 3095 3097 3099 3102 3106 3109 3112 3113 3117 3119 3120 3123 3123 3123 3124 3123 3122
3057 3059 3064 3065 3067 3068 3071 3072 3075 3077 3077 3077 3079 3074 3073 3077 3079 3079 3080 3080 3080 3080 3081 3082 3083 3085 3087 3090 3092 3094 3096 3099 3101 3103 3106 3106 3109 3112 3113 3115 3115 3115 3115 3116
3058 3059 3063 3066 3068 3069 3071 3073 3075 3076 3077 3075 3076 3076 3075 3076 3077 3078 3078 3079 3079 3080 3080 3080 3079 3080 3082 3085 3087 3088 3090 3093 3096 3098 3099 3100 3104 3105 3106 3105 3105 3106 3107 3107
3058 3061 3064 3068 3071 3070 3071 3072 3074 3074 3074 3074 3076 3075 3074 3075 3076 3077 3079 3078 3078 3078 3079 3078 3078 3078 3077 3079 3080 3082 3084 3086 3089 3090 3092 3091 3091 3096 3096 3096 3099 3098 3096 3098
3058 3059 3061 3063 3064 3066 3067 3069 3072 3073 3074 3071 3069 3071 3072 3073 3074 3075 3075 3073 3073 3073 3073 3074 3074 3075 3074 3074 3074 3076 3077 3079 3081 3081 3083 3086 3086 3088 3089 3090 3091 3091 3090 3090
3061 3061 3063 3064 3065 3066 3066 3066 3069 3070 3068 3068 3065 3068 3070 3071 3070 3070 3070 3069 3068 3068 3067 3067 3069 3070 3070 3070 3070 3070 3071 3072 3073 3075 3077 3078 3079 3081 3083 3084 3083 3083 3082 3081
3063 3065 3065 3066 3066 3066 3065 3065 3066 3065 3063 3063 3062 3060 3063 3065 3065 3066 3064 3063 3062 3062 3061 3061 3061 3061 3062 3063 3063 3064 3065 3065 3067 3069 3071 3073 3074 3076 3077 3077 3076 3075 3074 3073
3063 3064 3064 3064 3063 3063 3063 3059 3059 3059 3059 3059 3057 3056 3059 3057 3057 3057 3057 3057 3056 3056 3056 3054 3053 3052 3054 3054 3056 3058 3060 3061 3062 3063 3065 3067 3069 3070 3070 3070 3069 3068 3067 3066
3059 3058 3059 3059 3061 3062 3056 3055 3055 3054 3054 3053 3052 3052 3053 3052 3051 3051 3050 3049 3049 3048 3047 3046 3045 3045 3045 3046 3049 3051 3053 3055 3056 3058 3060 3062 3063 3064 3063 3063 3062 3061 3060 3058
3056 3057 3058 3060 3060 3057 3054 3053 3053 3051 3051 3048 3047 3046 3046 3046 3046 3046 3044 3042 3041 3040 3039 3038 3037 3037 3037 3039 3042 3045 3047 3050 3051 3054 3055 3056 3057 3057 3057 3056 3055 3054 3053 3051
3055 3055 3058 3060 3060 3057 3054 3053 3052 3049 3046 3044 3044 3043 3043 3042 3040 3040 3038 3036 3034 3032 3031 3031 3030 3030 3031 3033 3035 3038 3042 3044 3046 3048 3049 3050 3051 3051 3050 3050 3049 3047 3046 3045
3053 3054 3055 3057 3058 3055 3053 3052 3051 3050 3051 3045 3043 3041 3040 3038 3036 3034 3032 3030 3028 3026 3024 3022 3022 3023 3024 3027 3029 3031 3034 3037 3039 3041 3042 3044 3045 3044 3044 3043 3042 3040 3039 3037
3053 3053 3053 3054 3054 3052 3050 3050 3050 3048 3044 3042 3040 3038 3035 3034 3031 3029 3027 3024 3022 3020 3018 3016 3015 3016 3018 3021 3022 3025 3028 3030 3033 3035 3037 3037 3038 3037 3036 3035 3034 3033 3032 3031
3052 3051 3051 3052 3050 3049 3046 3044 3042 3039 3037 3035 3034 3033 3030 3028 3026 3024 3022 3020 3018 3016 3014 3012 3011 3012 3014 3016 3018 3020 3023 3026 3027 3029 3030 3031 3031 3030 3028 3028 3027 3026 3026 3025
3047 3046 3046 3046 3044 3041 3039 3037 3035 3032 3029 3026 3025 3022 3022 3020 3020 3017 3016 3014 3013 3012 3010 3010 3009 3009 3010 3012 3014 3015 3017 3019 3021 3022 3023 3024 3023 3022 3021 3020 3019 3019 3019 3019
3043 3041 3039 3038 3037 3033 3032 3031 3027 3023 3022 3017 3015 3013 3011 3010 3011 3011 3010 3009 3008 3007 3007 3006 3006 3006 3007 3008 3009 3010 3012 3013 3014 3015 3015 3016 3015 3015 3014 3013 3012 3013 3013 3013
3038 3036 3036 3032 3030 3028 3023 3019 3016 3012 3010 3008 3005 3004 3003 3002 3002 3002 3003 3002 3002 3002 3001 3001 3001 3001 3002 3003 3004 3005 3005 3006 3006 3007 3008 3008 3007 3007 3007 3007 3007 3007 3007 3007